Weather History for Las Vegas, NV

Change the Weather History Date:

Sunday, March 17, 2013

  Actual Average Record
Temperature  
Mean Temperature 72 °F 60 °F  
Max Temperature 81 °F 71 °F 91 °F (2007)
Min Temperature 63 °F 50 °F 30 °F (1955)
Degree Days  
Heating Degree Days 0 6  
Month to date heating degree days 64 122  
Since 1 July heating degree days 1701 1813  
Cooling Degree Days 7 1  
Month to date cooling degree days 39 9  
Year to date cooling degree days 39 10  
Growing Degree Days 24 (Base 50)    
Moisture  
Dew Point 10 °F    
Average Humidity 10    
Maximum Humidity 15    
Minimum Humidity 5    
Precipitation  
Precipitation 0.00 in 0.01 in 0.18 in (2012)
Month to date precipitation 0.15 0.30  
Year to date precipitation 0.58 1.60  
Snow  
Snow 0.00 in 0.00 in 0.00 in (2013)
Month to date snowfall 0.0 0.0  
Since 1 July snowfall T 0.3  
Snow Depth 0.00 in    
Sea Level Pressure  
Sea Level Pressure 29.77 in    
Wind  
Wind Speed 10 mph (WSW)    
Max Wind Speed 24 mph    
Max Gust Speed 36 mph    
Visibility 10 miles    
Events      
T = Trace of Precipitation, MM = Missing Value Source: NWS Daily Summary

Daily Weather History Graph

Daily Weather History Graph

Search for Another Location

Airport:

Trip Planner

Search our weather history database for the weather conditions in past years. The results will help you decide how hot, cold, wet, or windy it might be!

Date:

Astronomy

Mar. 17, 2013 Rise Set
Actual Time 6:48 AM PDT 6:50 PM PDT
Civil Twilight 6:22 AM PDT 7:15 PM PDT
Nautical Twilight 5:52 AM PDT 7:45 PM PDT
Astronomical Twilight 5:22 AM PDT 8:15 PM PDT
Moon 10:14 AM PDT (3/17) No Moon Set
Length of Visible Light 12h 53m
Length of Day
12h 02m
Waxing Crescent, 32% of the Moon is Illuminated
Mar 17
Waxing Crescent
Mar 19
First Quarter
Mar 27
Full
Apr 2
Last Quarter
Apr 10
New

Hourly Weather History & Observations

Time (PDT) Temp. Dew Point Humidity Pressure Visibility Wind Dir Wind Speed Gust Speed Precip Events Conditions
12:56 AM 72.0 °F 21.9 °F 15% 29.64 in 10.0 mi SW 13.8 mph - N/A   Scattered Clouds
1:56 AM 71.1 °F 14.0 °F 11% 29.68 in 10.0 mi WNW 18.4 mph 26.5 mph N/A   Scattered Clouds
2:56 AM 70.0 °F 15.1 °F 12% 29.68 in 10.0 mi WNW 18.4 mph 27.6 mph N/A   Partly Cloudy
3:56 AM 69.1 °F 16.0 °F 13% 29.70 in 10.0 mi NNW 15.0 mph 27.6 mph N/A   Clear
4:56 AM 68.0 °F 17.1 °F 14% 29.74 in 10.0 mi NNW 16.1 mph 20.7 mph N/A   Clear
5:56 AM 68.0 °F 16.0 °F 14% 29.75 in 10.0 mi Variable 3.5 mph 17.3 mph N/A   Clear
5:59 AM 69.8 °F 15.8 °F 13% 29.81 in 10.0 mi WNW 12.7 mph 19.6 mph N/A   Clear
6:56 AM 66.0 °F 17.1 °F 15% 29.80 in 10.0 mi SSW 4.6 mph - N/A   Clear
7:56 AM 66.9 °F 16.0 °F 14% 29.82 in 10.0 mi North 11.5 mph - N/A   Partly Cloudy
8:56 AM 69.1 °F 15.1 °F 13% 29.83 in 10.0 mi NNW 11.5 mph - N/A   Clear
9:56 AM 72.0 °F 6.1 °F 8% 29.84 in 10.0 mi NW 11.5 mph 20.7 mph N/A   Clear
10:56 AM 73.0 °F 7.0 °F 8% 29.83 in 10.0 mi NW 6.9 mph - N/A   Clear
11:56 AM 75.0 °F 8.1 °F 8% 29.82 in 10.0 mi Variable 6.9 mph - N/A   Clear
12:56 PM 75.0 °F 9.0 °F 8% 29.81 in 10.0 mi SSW 8.1 mph - N/A   Clear
1:07 PM 75.2 °F 8.6 °F 8% 29.86 in 10.0 mi West 4.6 mph - N/A   Clear
1:56 PM 78.1 °F 9.0 °F 7% 29.77 in 10.0 mi South 8.1 mph - N/A   Partly Cloudy
2:56 PM 80.1 °F 5.0 °F 6% 29.75 in 10.0 mi Calm Calm - N/A   Partly Cloudy
3:56 PM 80.1 °F 5.0 °F 6% 29.74 in 10.0 mi SW 9.2 mph - N/A   Scattered Clouds
4:56 PM 80.1 °F 5.0 °F 6% 29.73 in 10.0 mi SSE 4.6 mph - N/A   Scattered Clouds
5:56 PM 79.0 °F 5.0 °F 6% 29.73 in 10.0 mi South 5.8 mph - N/A   Scattered Clouds
6:56 PM 78.1 °F 3.0 °F 5% 29.73 in 10.0 mi SSW 10.4 mph - N/A   Mostly Cloudy
7:56 PM 75.0 °F 1.0 °F 6% 29.74 in 10.0 mi WSW 11.5 mph - N/A   Scattered Clouds
8:56 PM 72.0 °F 5.0 °F 7% 29.76 in 10.0 mi SW 12.7 mph - N/A   Partly Cloudy
9:56 PM 69.1 °F 8.1 °F 9% 29.76 in 10.0 mi SW 12.7 mph - N/A   Partly Cloudy
10:56 PM 66.9 °F 9.0 °F 10% 29.78 in 10.0 mi SSW 9.2 mph - N/A   Scattered Clouds
11:56 PM 68.0 °F 6.1 °F 9% 29.79 in 10.0 mi WSW 6.9 mph - N/A   Mostly Cloudy